Flag for U.S.A. Weather past 2 weeks in Marengo, Indiana, U.S.A.

Now
64 °F

Sunny.


Feels Like: 64 °F
Forecast: 40 / 61 °F
Wind: 7 mph from West

Location: Bowling Green-Warren County Regional Airport

Current Time: Mar 30, 2015 at 4:15:03 PM

Latest Report: Mar 30, 2015 at 3:53 PM


Visibility: 10 mi

Pressure: 30.13 "Hg

Humidity: 26%

Dew point: 28 °F

Location of MarengoLocation

Historic Weather in Marengo — Graph

°F

Marengo temperature yesterday

Maximum temperature yesterday: 62 °F (at 4:53 PM)
Minimum temperature yesterday: 23 °F (at 6:53 AM)
Average temperature yesterday: 44 °F

Past Weeks' High & Low Weather Summary

 TemperatureHumidityPressure
High77 °F (Mar 25, 2:53 PM)93% (Mar 19, 10:53 PM)30.38 "Hg (Mar 19, 10:53 PM)
Low23 °F (Mar 29, 6:53 AM)18% (Mar 29, 2:53 PM)29.80 "Hg (Mar 26, 4:53 AM)
Average51 °F61%30.11 "Hg
* Reported Mar 15 2:53 PM — Mar 30 2:53 PM, Marengo, Weather by CustomWeather, © 2015

Note: Actual official high and low records may vary slightly from our data, if they occured in-between our weather recording intervals... More about our weather records

Advertising

Marengo weather history for previous 24 hours

 ConditionsComfort  
Time TempWeatherWind HumidityBarometerVisibility
2:53 PM
Mon, Mar 30
63 °FSunny.6 mph27%30.16 "Hg10 mi
1:53 PM63 °FSunny.12 mph27%30.18 "Hg10 mi
12:53 PM60 °FSunny.10 mph27%30.20 "Hg10 mi
11:53 AM60 °FSunny.10 mph33%30.20 "Hg10 mi
10:53 AM58 °FSunny.8 mph47%30.19 "Hg10 mi
9:53 AM54 °FSunny.7 mph62%30.17 "Hg10 mi
8:53 AM50 °FSunny.5 mph77%30.16 "Hg10 mi
7:53 AM47 °FSunny.3 mph80%30.13 "Hg10 mi
6:53 AM41 °FFog.No wind93%30.09 "Hg6 mi
5:53 AM46 °FPassing clouds.3 mph89%30.06 "Hg10 mi
4:53 AM48 °FPassing clouds.No wind86%30.04 "Hg10 mi
3:53 AM49 °FClear.3 mph84%30.04 "Hg10 mi
2:53 AM51 °FOvercast.7 mph80%30.05 "Hg10 mi
1:53 AM51 °FMostly cloudy.7 mph80%30.07 "Hg10 mi
12:53 AM52 °FLight rain. Overcast.5 mph72%30.08 "Hg8 mi
11:53 PM
Sun, Mar 29
56 °FMostly cloudy.9 mph53%30.07 "Hg10 mi
10:53 PM56 °FPassing clouds.9 mph47%30.06 "Hg10 mi
9:53 PM56 °FPassing clouds.8 mph46%30.09 "Hg10 mi
8:53 PM58 °FClear.10 mph39%30.04 "Hg10 mi
7:53 PM59 °FSunny.13 mph38%30.01 "Hg10 mi
6:53 PM61 °FSunny.17 mph31%30.02 "Hg10 mi
5:53 PM62 °FSunny.18 mph26%30.04 "Hg10 mi
4:53 PM62 °FSunny.18 mph23%30.08 "Hg10 mi
Weather by CustomWeather, © 2015

See weather overviewHow to use our weather pages